SCP
0 0 0 0 0 0 0 -0 -0 0 -0 -0 -0 -0 -0 -0 -0 -0 -0 -0 -0 -0 -0 -0 -0 -0 -0 -0 -0 -0 -0 -0 -0 -0 -0 -0 -0 -0 -0 -0 -0 -0 -0
0 0 0 0 0 0 0 0 0 0 0 -0 -0 -0 -0 0 -0 0 0 0 0 0 -0 -0 -0 -0 -0 -0 -0 -0 -0 -0 -0 0 0 -0 -0 -0 -0 -0 -0 0 0
0 0 0 0 0 0 0 0 0 0 0 0 0 0 0 -0 0 0 0 0 0 -0 -0 -0 -0 -0 -0 -0 -0 -0 -0 -0 -0 0 -0 0 0 -0 -0 -0 -0 -0 -0
0 0 0 0 0 0 0 0 0 0 0 0 0 0 0 0 0 -0 -0 -0 -0 -0 -0 -0 -0 -0 -0 -0 -0 -0 -0 -0 0 -0 0 0 0 -0 -0 -0 -0 -0 -0
-0 0 -0 0 0 0 0 0 0 -0 0 0 0 0 0 0 0 -0 -0 -0 -0 -0 -0 -0 -0 -0 -0 -0 -0 -0 -0 0 0 0 0 0 0 0 -0 -0 0 0 0
-0 -0 -0 0 0 0 0 0 -0 0 -0 -0 0 -0 -0 -0 0 -0 -0 -0 -0 -0 -0 -0 -0 -0 -0 -0 -0 -0 0 0 0 0 0 0 0 0 0 0 0 0 0
-0 -0 -0 -0 -0 -0 0 -0 -0 -0 0 0 0 -0 -0 -0 -0 -0 -0 -0 -0 -0 -0 -0 -0 -0 -0 -0 0 0 0 0 0 0 0 0 0 0 0 0 0 0 0
-0 -0 -0 -0 -0 -0 -0 -0 -0 0 -0 0 0 -0 -0 -0 -0 -0 -0 -0 -0 -0 -0 -0 -0 -0 0 0 0 0 0 -0 0 0 0 0 0 0 0 0 0 0 0
-0 -0 -0 -0 -0 -0 -0 -0 -0 -0 -0 -0 -0 -0 -0 -0 -0 -0 -0 -0 -0 -0 0 0 0 0 0 0 0 0 0 0 0 0 0 0 0 0 0 0 0 0 0
-0 -0 -0 -0 -0 -0 -0 -0 -0 -0 -0 -0 -0 -0 -0 -0 -0 -0 -0 0 0 0 0 0 0 0 0 0 0 0 0 0 0 0 0 0 0 0 0 0 0 0 0
-0 -0 -0 -0 -0 -0 -0 -0 -0 -0 -0 -0 -0 -0 -0 -0 -0 0 -0 0 0 0 0 0 0 0 0 0 0 0 0 0 0 0 0 0 0 0 0 0 0 0 0
-0 -0 -0 -0 -0 -0 -0 -0 -0 -0 0 0 -0 -0 -0 -0 -0 0 0 0 0 0 0 0 0 0 0 0 0 0 0 0 0 0 0 0 0 0 0 0 0 0 0
-0 -0 -0 -0 -0 -0 -0 -0 -0 0 0 0 -0 -0 -0 0 0 0 0 0 0 0 0 0 0 0 0 0 0 0 0 0 0 0 0 0 0 0 0 0 0 0 0
-0 -0 -0 -0 -0 -0 -0 -0 -0 -0 -0 -0 0 -0 -0 0 0 0 0 0 0 0 0 0 0 0 0 0 0 0 0 0 0 0 0 0 0 0 0 -0 0 0 0
0 0 -0 -0 -0 -0 0 0 0 0 -0 -0 -0 -0 -0 0 0 0 0 0 0 0 0 0 0 0 0 0 0 0 0 0 0 0 0 0 0 0 0 0 0 0 0
0 0 0 0 0 0 0 0 0 0 0 0 0 0 0 0 0 0 0 0 0 0 0 0 0 0 0 0 0 0 0 0 0 0 0 0 0 0 0 0 0 0 0
0 0 0 0 0 0 0 0 0 0 0 0 0 0 0 0 0 0 0 0 0 0 0 0 0 0 0 0 0 0 0 0 0 0 0 0 0 0 0 0 0 0 0
0 0 0 0 0 0 0 0 0 0 0 0 0 0 0 0 0 0 0 0 0 0 0 0 0 0 0 0 0 0 0 0 0 0 0 0 0 0 0 0 0 0 0
0 0 0 0 0 0 0 0 0 0 0 0 0 0 0 0 0 0 0 0 0 0 0 0 0 0 0 0 0 0 0 0 0 0 0 0 0 0 0 0 0 0 0
0 0 0 0 0 0 0 0 0 0 0 0 0 0 0 0 0 0 0 0 0 0 0 0 0 0 0 0 0 0 0 0 0 0 0 0 0 0 0 0 0 0 0
0 0 0 0 0 0 0 0 0 0 0 0 0 0 0 0 0 0 0 0 0 0 0 0 0 0 0 0 0 0 0 0 0 0 0 0 0 0 0 0 0 0 0
0 0 0 0 0 0 0 0 0 0 0 0 0 0 0 0 0 0 0 0 0 0 0 0 0 0 0 0 0 0 0 0 0 0 0 0 0 0 0 0 0 0 0
0 0 0 0 0 0 0 0 0 0 0 0 0 0 0 0 0 0 0 0 0 0 0 0 0 0 0 0 0 0 0 0 0 0 0 0 0 0 0 0 0 0 0
0 0 0 0 0 0 0 0 0 0 0 0 0 0 0 0 0 0 0 0 0 0 0 0 0 0 0 0 0 0 0 0 0 0 0 0 0 0 0 0 0 0 0
0 0 0 0 0 0 0 0 0 0 0 0 0 0 0 0 0 0 0 0 0 0 0 0 0 0 0 0 0 0 0 0 0 0 0 0 0 0 0 0 0 0 0
0 0 0 0 0 0 0 0 0 0 0 0 0 0 0 0 0 0 0 0 0 0 0 0 0 0 0 0 0 0 0 0 0 0 0 0 0 0 0 0 0 0 0
Wind_Speed_500mb
25 20 13 8 17 23 14 17 22 26 24 23 24 25 24 24 28 26 25 28 32 32 34 37 34 32 30 28 24 22 22 25 28 32 31 30 31 35 33 35 35 33 32
27 23 18 15 24 25 13 20 22 29 26 24 22 23 23 19 20 21 18 19 31 31 35 33 33 32 29 28 30 31 30 30 34 34 39 39 37 31 33 35 32 31 34
27 25 21 21 26 26 15 17 23 29 29 25 19 19 19 17 19 19 21 33 34 31 35 34 31 30 30 31 32 33 32 32 31 31 42 36 38 37 32 34 37 35 33
29 27 23 25 24 25 19 18 25 24 24 28 21 20 18 19 18 16 27 29 32 30 31 29 31 31 32 31 30 30 31 30 29 40 34 33 33 27 26 28 27 26 26
30 28 25 25 23 21 23 21 21 24 20 20 22 21 19 17 14 19 29 30 31 29 27 28 32 31 31 31 30 30 31 32 33 34 35 34 28 26 23 22 18 17 20
33 29 25 25 21 19 21 21 22 22 25 22 20 20 19 19 19 24 25 26 30 27 26 26 29 29 29 29 29 31 33 32 34 31 29 31 28 24 27 28 28 25 26
35 30 25 25 22 20 20 20 21 22 21 24 24 26 25 23 23 23 25 26 26 25 25 26 27 27 28 28 28 30 32 31 30 29 31 28 30 29 31 33 30 25 25
33 32 28 25 22 20 20 20 22 22 21 22 22 20 18 20 20 20 21 22 23 24 23 24 25 25 27 26 27 28 30 29 29 29 30 26 23 26 28 26 25 22 23
35 32 30 27 25 22 20 20 19 20 20 18 17 13 13 16 15 17 17 19 20 20 21 21 21 22 24 25 25 26 27 27 26 26 23 20 20 24 25 26 27 27 26
38 35 32 30 27 24 21 18 16 15 16 15 13 11 10 10 12 11 14 15 16 17 17 17 18 19 21 22 21 23 23 23 23 22 21 21 21 24 26 26 26 25 25
43 39 36 32 29 26 23 20 18 15 13 12 11 11 10 8 8 8 8 10 12 13 13 13 14 15 16 16 17 18 18 19 20 19 18 21 21 21 21 21 22 22 22
50 45 39 35 32 29 25 21 18 15 14 11 10 10 9 8 7 6 6 6 7 8 9 9 9 10 10 11 11 13 14 16 18 18 17 16 17 17 18 19 20 21 22
51 48 43 39 36 32 28 24 21 18 15 12 9 8 7 5 5 6 4 4 4 4 4 5 5 5 5 5 6 7 9 10 12 13 15 16 18 19 20 21 20 21 23
55 50 47 43 40 37 33 28 25 21 19 16 12 10 8 7 6 6 6 5 6 5 4 4 3 3 3 2 1 1 4 5 7 10 13 15 19 22 25 27 30 30 30
57 54 50 46 43 39 37 34 31 28 24 21 18 16 14 12 11 10 10 10 10 10 10 10 9 7 6 6 5 4 4 6 8 11 15 19 22 24 26 28 28 25 25
58 56 51 48 44 41 40 37 35 33 30 28 25 23 22 20 18 16 13 13 13 13 14 15 14 13 13 12 11 11 11 11 13 16 19 22 24 29 31 32 31 31 30
59 53 51 47 46 46 43 40 40 38 36 34 32 31 29 27 25 23 21 19 17 16 17 17 18 18 19 18 18 19 18 18 18 20 24 28 31 30 32 34 29 28 26
56 55 53 50 49 48 45 43 43 41 41 40 40 38 36 34 32 30 28 25 24 21 20 20 20 22 23 23 24 25 24 24 23 27 30 33 36 35 36 29 27 28 26
51 54 54 52 50 46 43 41 41 41 43 43 44 45 43 40 37 35 32 28 27 27 26 26 25 24 25 26 27 29 29 30 32 35 34 34 33 28 31 33 32 29 28
52 55 53 54 52 49 47 44 43 42 45 47 48 49 46 43 40 36 35 33 34 32 31 30 29 29 29 31 33 33 34 33 35 35 36 29 24 31 30 30 32 34 36
54 58 60 60 57 59 60 59 57 53 49 49 47 49 48 44 41 41 40 37 37 37 33 34 33 34 34 34 35 34 33 35 43 37 32 23 28 28 31 28 30 34 29
56 58 63 64 63 66 67 64 61 56 55 49 46 45 42 45 47 46 42 40 39 37 36 36 35 36 35 34 37 42 35 29 37 34 26 26 32 31 27 36 33 29 27
61 63 63 64 67 68 67 66 67 66 65 59 58 54 50 49 48 48 47 45 43 41 39 39 41 40 38 39 40 40 27 23 30 43 45 47 45 31 33 37 28 25 34
65 66 68 69 68 66 65 72 77 70 71 62 60 54 52 50 50 45 48 46 45 45 43 41 40 42 43 45 47 50 52 54 42 28 26 27 36 30 31 28 19 29 28
65 70 72 72 71 70 72 75 71 75 71 64 62 58 54 50 50 47 43 49 49 46 43 42 44 42 43 45 52 56 56 54 51 53 48 41 26 21 24 17 20 30 32
69 68 70 73 78 77 74 73 77 74 71 72 67 62 55 49 48 41 36 36 37 38 39 38 36 41 43 43 48 51 50 53 52 47 42 41 27 19 16 15 24 26 30
Wind_Direction_500mb
154 153 130 113 127 113 122 112 127 124 113 111 103 100 97 96 90 84 81 84 85 81 81 78 78 81 79 76 75 75 67 61 60 60 60 63 71 72 67 65 72 69 79
154 146 125 121 123 111 124 113 132 137 124 122 113 111 104 102 94 87 87 86 88 83 82 81 75 74 74 74 73 72 69 62 60 60 57 50 65 70 64 58 61 58 64
153 142 124 126 129 124 122 88 118 143 135 130 124 135 131 112 98 94 81 86 81 81 82 74 74 71 70 72 76 74 69 64 63 66 68 61 62 65 70 68 68 74 73
150 146 127 131 133 123 121 99 107 129 143 144 136 123 112 106 99 95 91 91 93 83 80 78 68 67 66 66 68 68 68 66 66 69 70 69 63 68 74 78 82 68 46
154 144 131 133 135 125 109 101 98 104 111 111 116 108 104 101 102 105 97 99 98 92 83 74 66 66 66 65 68 69 68 73 73 69 73 77 70 59 56 61 52 40 37
154 147 136 135 133 128 112 105 103 101 97 101 108 110 96 94 99 106 100 94 93 89 80 73 72 68 67 66 71 75 77 79 73 69 68 66 67 64 52 47 47 53 56
157 153 145 141 138 133 124 110 109 102 97 93 95 102 102 97 87 87 93 88 85 86 84 79 75 69 66 69 77 78 77 74 75 72 70 71 57 55 54 63 63 58 48
165 159 155 148 145 136 132 123 126 115 115 103 100 107 98 91 86 87 92 92 84 81 81 82 76 70 67 74 80 81 78 75 71 73 72 72 64 56 54 57 54 46 40
173 168 164 159 155 149 144 134 132 123 119 122 114 112 95 93 89 87 96 90 86 84 84 84 79 75 73 78 83 82 78 72 71 69 68 64 54 53 54 51 43 43 39
178 179 175 172 165 162 155 148 140 128 123 124 124 116 107 100 98 97 105 101 89 84 86 89 84 79 78 79 84 82 76 68 67 65 62 59 54 45 43 39 37 34 35
182 185 184 182 175 172 168 163 155 150 141 138 133 127 123 120 114 103 105 107 96 87 82 84 85 86 84 82 83 80 73 66 60 59 55 51 44 40 34 32 27 26 21
189 189 191 189 187 183 180 176 173 170 164 159 152 142 142 142 144 129 122 127 107 99 94 92 84 85 85 84 83 77 67 59 56 54 50 42 36 30 23 15 10 8 8
195 196 196 195 195 195 192 190 190 187 186 182 177 163 155 145 151 157 153 164 158 141 121 114 114 111 97 103 94 78 59 59 53 42 33 23 13 4 1 356 351 348 353
203 204 201 203 203 201 202 201 202 201 202 201 200 199 193 182 182 193 205 208 207 208 216 218 218 196 184 174 163 64 27 21 17 13 5 1 353 349 344 342 341 341 348
209 208 207 207 210 209 209 210 212 211 212 213 216 217 218 214 211 212 216 226 228 228 230 233 245 254 255 257 279 267 308 315 327 336 335 332 334 333 330 328 324 321 321
212 212 213 211 214 218 219 218 220 221 220 222 224 227 227 228 230 230 233 233 237 241 245 247 251 258 263 265 270 273 283 291 301 313 321 322 319 320 315 316 314 317 313
216 213 215 216 218 222 225 227 225 226 228 229 231 232 234 235 236 238 241 246 246 246 249 254 259 265 268 269 272 273 278 286 293 303 309 314 313 308 313 312 313 315 316
216 212 215 217 220 224 226 230 231 231 234 235 236 237 238 239 240 241 244 247 250 255 255 258 263 269 270 272 271 275 278 285 292 299 302 305 307 308 313 311 311 311 315
213 212 215 216 219 221 224 229 235 237 236 240 242 241 240 240 241 243 245 250 253 257 260 262 265 269 278 281 280 278 282 287 292 295 300 304 305 306 314 311 312 307 311
213 215 218 221 222 223 226 229 233 233 234 237 240 243 243 244 244 249 250 249 250 257 264 268 271 275 279 284 287 289 290 292 293 295 296 293 293 311 308 306 311 314 320
215 217 220 222 224 227 227 229 232 236 238 239 242 247 245 244 243 245 249 250 254 259 267 270 274 277 279 285 293 295 293 287 286 289 292 286 299 303 310 308 312 311 311
219 220 223 226 225 229 232 235 238 242 245 247 250 250 245 245 242 246 248 250 252 258 263 269 274 279 285 288 282 287 288 285 301 296 296 276 299 308 305 306 306 306 313
226 226 227 230 230 234 236 239 241 243 245 244 244 245 245 249 248 247 249 253 255 260 268 269 272 274 276 279 282 279 272 270 273 287 282 287 291 293 295 295 296 310 320
233 233 234 234 235 238 238 239 241 243 246 251 251 252 252 252 252 254 250 252 257 263 263 269 274 274 274 277 278 278 279 277 275 281 263 274 278 290 287 291 304 319 323
237 237 237 238 238 239 239 241 244 245 249 251 252 255 252 252 251 252 256 252 253 256 261 266 268 272 278 279 280 283 284 286 281 280 278 290 277 281 282 279 327 324 311
244 242 239 238 238 238 240 242 243 245 247 249 249 251 250 249 250 248 249 243 247 253 258 258 263 266 271 279 280 282 283 283 281 290 275 284 277 284 276 336 321 299 310
Wind_Speed_850mb
25 20 13 8 17 23 14 17 22 26 24 23 24 25 24 24 28 26 25 28 32 32 34 37 34 32 30 28 24 22 22 25 28 32 31 30 31 35 33 35 35 33 32
27 23 18 15 24 25 13 20 22 29 26 24 22 23 23 19 20 21 18 19 31 31 35 33 33 32 29 28 30 31 30 30 34 34 39 39 37 31 33 35 32 31 34
27 25 21 21 26 26 15 17 23 29 29 25 19 19 19 17 19 19 21 33 34 31 35 34 31 30 30 31 32 33 32 32 31 31 42 36 38 37 32 34 37 35 33
29 27 23 25 24 25 19 18 25 24 24 28 21 20 18 19 18 16 27 29 32 30 31 29 31 31 32 31 30 30 31 30 29 40 34 33 33 27 26 28 27 26 26
30 28 25 25 23 21 23 21 21 24 20 20 22 21 19 17 14 19 29 30 31 29 27 28 32 31 31 31 30 30 31 32 33 34 35 34 28 26 23 22 18 17 20
33 29 25 25 21 19 21 21 22 22 25 22 20 20 19 19 19 24 25 26 30 27 26 26 29 29 29 29 29 31 33 32 34 31 29 31 28 24 27 28 28 25 26
35 30 25 25 22 20 20 20 21 22 21 24 24 26 25 23 23 23 25 26 26 25 25 26 27 27 28 28 28 30 32 31 30 29 31 28 30 29 31 33 30 25 25
33 32 28 25 22 20 20 20 22 22 21 22 22 20 18 20 20 20 21 22 23 24 23 24 25 25 27 26 27 28 30 29 29 29 30 26 23 26 28 26 25 22 23
35 32 30 27 25 22 20 20 19 20 20 18 17 13 13 16 15 17 17 19 20 20 21 21 21 22 24 25 25 26 27 27 26 26 23 20 20 24 25 26 27 27 26
38 35 32 30 27 24 21 18 16 15 16 15 13 11 10 10 12 11 14 15 16 17 17 17 18 19 21 22 21 23 23 23 23 22 21 21 21 24 26 26 26 25 25
43 39 36 32 29 26 23 20 18 15 13 12 11 11 10 8 8 8 8 10 12 13 13 13 14 15 16 16 17 18 18 19 20 19 18 21 21 21 21 21 22 22 22
50 45 39 35 32 29 25 21 18 15 14 11 10 10 9 8 7 6 6 6 7 8 9 9 9 10 10 11 11 13 14 16 18 18 17 16 17 17 18 19 20 21 22
51 48 43 39 36 32 28 24 21 18 15 12 9 8 7 5 5 6 4 4 4 4 4 5 5 5 5 5 6 7 9 10 12 13 15 16 18 19 20 21 20 21 23
55 50 47 43 40 37 33 28 25 21 19 16 12 10 8 7 6 6 6 5 6 5 4 4 3 3 3 2 1 1 4 5 7 10 13 15 19 22 25 27 30 30 30
57 54 50 46 43 39 37 34 31 28 24 21 18 16 14 12 11 10 10 10 10 10 10 10 9 7 6 6 5 4 4 6 8 11 15 19 22 24 26 28 28 25 25
58 56 51 48 44 41 40 37 35 33 30 28 25 23 22 20 18 16 13 13 13 13 14 15 14 13 13 12 11 11 11 11 13 16 19 22 24 29 31 32 31 31 30
59 53 51 47 46 46 43 40 40 38 36 34 32 31 29 27 25 23 21 19 17 16 17 17 18 18 19 18 18 19 18 18 18 20 24 28 31 30 32 34 29 28 26
56 55 53 50 49 48 45 43 43 41 41 40 40 38 36 34 32 30 28 25 24 21 20 20 20 22 23 23 24 25 24 24 23 27 30 33 36 35 36 29 27 28 26
51 54 54 52 50 46 43 41 41 41 43 43 44 45 43 40 37 35 32 28 27 27 26 26 25 24 25 26 27 29 29 30 32 35 34 34 33 28 31 33 32 29 28
52 55 53 54 52 49 47 44 43 42 45 47 48 49 46 43 40 36 35 33 34 32 31 30 29 29 29 31 33 33 34 33 35 35 36 29 24 31 30 30 32 34 36
54 58 60 60 57 59 60 59 57 53 49 49 47 49 48 44 41 41 40 37 37 37 33 34 33 34 34 34 35 34 33 35 43 37 32 23 28 28 31 28 30 34 29
56 58 63 64 63 66 67 64 61 56 55 49 46 45 42 45 47 46 42 40 39 37 36 36 35 36 35 34 37 42 35 29 37 34 26 26 32 31 27 36 33 29 27
61 63 63 64 67 68 67 66 67 66 65 59 58 54 50 49 48 48 47 45 43 41 39 39 41 40 38 39 40 40 27 23 30 43 45 47 45 31 33 37 28 25 34
65 66 68 69 68 66 65 72 77 70 71 62 60 54 52 50 50 45 48 46 45 45 43 41 40 42 43 45 47 50 52 54 42 28 26 27 36 30 31 28 19 29 28
65 70 72 72 71 70 72 75 71 75 71 64 62 58 54 50 50 47 43 49 49 46 43 42 44 42 43 45 52 56 56 54 51 53 48 41 26 21 24 17 20 30 32
69 68 70 73 78 77 74 73 77 74 71 72 67 62 55 49 48 41 36 36 37 38 39 38 36 41 43 43 48 51 50 53 52 47 42 41 27 19 16 15 24 26 30
Wind_Direction_850mb
154 153 130 113 127 113 122 112 127 124 113 111 103 100 97 96 90 84 81 84 85 81 81 78 78 81 79 76 75 75 67 61 60 60 60 63 71 72 67 65 72 69 79
154 146 125 121 123 111 124 113 132 137 124 122 113 111 104 102 94 87 87 86 88 83 82 81 75 74 74 74 73 72 69 62 60 60 57 50 65 70 64 58 61 58 64
153 142 124 126 129 124 122 88 118 143 135 130 124 135 131 112 98 94 81 86 81 81 82 74 74 71 70 72 76 74 69 64 63 66 68 61 62 65 70 68 68 74 73
150 146 127 131 133 123 121 99 107 129 143 144 136 123 112 106 99 95 91 91 93 83 80 78 68 67 66 66 68 68 68 66 66 69 70 69 63 68 74 78 82 68 46
154 144 131 133 135 125 109 101 98 104 111 111 116 108 104 101 102 105 97 99 98 92 83 74 66 66 66 65 68 69 68 73 73 69 73 77 70 59 56 61 52 40 37
154 147 136 135 133 128 112 105 103 101 97 101 108 110 96 94 99 106 100 94 93 89 80 73 72 68 67 66 71 75 77 79 73 69 68 66 67 64 52 47 47 53 56
157 153 145 141 138 133 124 110 109 102 97 93 95 102 102 97 87 87 93 88 85 86 84 79 75 69 66 69 77 78 77 74 75 72 70 71 57 55 54 63 63 58 48
165 159 155 148 145 136 132 123 126 115 115 103 100 107 98 91 86 87 92 92 84 81 81 82 76 70 67 74 80 81 78 75 71 73 72 72 64 56 54 57 54 46 40
173 168 164 159 155 149 144 134 132 123 119 122 114 112 95 93 89 87 96 90 86 84 84 84 79 75 73 78 83 82 78 72 71 69 68 64 54 53 54 51 43 43 39
178 179 175 172 165 162 155 148 140 128 123 124 124 116 107 100 98 97 105 101 89 84 86 89 84 79 78 79 84 82 76 68 67 65 62 59 54 45 43 39 37 34 35
182 185 184 182 175 172 168 163 155 150 141 138 133 127 123 120 114 103 105 107 96 87 82 84 85 86 84 82 83 80 73 66 60 59 55 51 44 40 34 32 27 26 21
189 189 191 189 187 183 180 176 173 170 164 159 152 142 142 142 144 129 122 127 107 99 94 92 84 85 85 84 83 77 67 59 56 54 50 42 36 30 23 15 10 8 8
195 196 196 195 195 195 192 190 190 187 186 182 177 163 155 145 151 157 153 164 158 141 121 114 114 111 97 103 94 78 59 59 53 42 33 23 13 4 1 356 351 348 353
203 204 201 203 203 201 202 201 202 201 202 201 200 199 193 182 182 193 205 208 207 208 216 218 218 196 184 174 163 64 27 21 17 13 5 1 353 349 344 342 341 341 348
209 208 207 207 210 209 209 210 212 211 212 213 216 217 218 214 211 212 216 226 228 228 230 233 245 254 255 257 279 267 308 315 327 336 335 332 334 333 330 328 324 321 321
212 212 213 211 214 218 219 218 220 221 220 222 224 227 227 228 230 230 233 233 237 241 245 247 251 258 263 265 270 273 283 291 301 313 321 322 319 320 315 316 314 317 313
216 213 215 216 218 222 225 227 225 226 228 229 231 232 234 235 236 238 241 246 246 246 249 254 259 265 268 269 272 273 278 286 293 303 309 314 313 308 313 312 313 315 316
216 212 215 217 220 224 226 230 231 231 234 235 236 237 238 239 240 241 244 247 250 255 255 258 263 269 270 272 271 275 278 285 292 299 302 305 307 308 313 311 311 311 315
213 212 215 216 219 221 224 229 235 237 236 240 242 241 240 240 241 243 245 250 253 257 260 262 265 269 278 281 280 278 282 287 292 295 300 304 305 306 314 311 312 307 311
213 215 218 221 222 223 226 229 233 233 234 237 240 243 243 244 244 249 250 249 250 257 264 268 271 275 279 284 287 289 290 292 293 295 296 293 293 311 308 306 311 314 320
215 217 220 222 224 227 227 229 232 236 238 239 242 247 245 244 243 245 249 250 254 259 267 270 274 277 279 285 293 295 293 287 286 289 292 286 299 303 310 308 312 311 311
219 220 223 226 225 229 232 235 238 242 245 247 250 250 245 245 242 246 248 250 252 258 263 269 274 279 285 288 282 287 288 285 301 296 296 276 299 308 305 306 306 306 313
226 226 227 230 230 234 236 239 241 243 245 244 244 245 245 249 248 247 249 253 255 260 268 269 272 274 276 279 282 279 272 270 273 287 282 287 291 293 295 295 296 310 320
233 233 234 234 235 238 238 239 241 243 246 251 251 252 252 252 252 254 250 252 257 263 263 269 274 274 274 277 278 278 279 277 275 281 263 274 278 290 287 291 304 319 323
237 237 237 238 238 239 239 241 244 245 249 251 252 255 252 252 251 252 256 252 253 256 261 266 268 272 278 279 280 283 284 286 281 280 278 290 277 281 282 279 327 324 311
244 242 239 238 238 238 240 242 243 245 247 249 249 251 250 249 250 248 249 243 247 253 258 258 263 266 271 279 280 282 283 283 281 290 275 284 277 284 276 336 321 299 310